Location: Ku?niki
(51.4449°N, 17.8974°E)
Time: 07:10:27
(UTC+00:00)

ATLAS 5 CENTAUR R/B - Pass Details

Date: 18 September 2020
Orbit: 262 x 14284 km, 60.7° (Epoch: 19 October)

Event Time Altitude Azimuth Distance (km) Brightness Sun altitude
Rises 17:32:29 0° 303° (WNW) 2,040 6.2 -6.6°
Reaches altitude 10° 17:33:50 10° 296° (WNW) 1,394 5.4 -6.8°
Maximum altitude 17:36:22 46° 220° (SW) 783 2.8 -7.2°
Drops below altitude 10° 17:42:48 10° 148° (SSE) 3,522 5.5 -8.2°
Sets 17:48:23 0° 145° (SE) 6,035 6.6 -9.0°
